When you browse on this site, cookies collect data to enhance your experience and personalize the content and advertising you see.
Visit our Privacy Policy to learn more. By continuing to use the site, you agree to this use of cookies and data.
  • In Latvia
  • List of Countries
  • For 7 days
  • Water Temperature
  • Weather Map
  • Weather Widgets
  • user-avatar
    Login

    Hourly Weather Annaba

    Today, 22 February, Saturday

    Time Temperature Precipitation Wind Pressure Humidity
    00:00 +9°C° 0 mm 3 mps 769 mmHg 87%
    01:00 +9°C° 0 mm 3 mps 769 mmHg 88%
    02:00 +9°C° 0 mm 3 mps 769 mmHg 88%
    03:00 +9°C° 0 mm 3 mps 769 mmHg 88%
    04:00 +8°C° 0 mm 3 mps 769 mmHg 89%
    05:00 +9°C° 0 mm 3 mps 769 mmHg 88%
    06:00 +9°C° 0 mm 3 mps 770 mmHg 87%
    07:00 +9°C° 0 mm 3 mps 770 mmHg 85%
    08:00 +10°C° 0 mm 3 mps 770 mmHg 81%
    09:00 +12°C° 0 mm 3 mps 771 mmHg 77%
    10:00 +13°C° 0 mm 3 mps 771 mmHg 74%
    11:00 +14°C° 0 mm 3 mps 771 mmHg 70%
    12:00 +16°C° 0 mm 3 mps 771 mmHg 66%
    13:00 +17°C° 0 mm 4 mps 771 mmHg 63%
    14:00 +17°C° 0 mm 4 mps 771 mmHg 64%
    15:00 +17°C° 0 mm 4 mps 771 mmHg 64%
    16:00 +17°C° 0 mm 4 mps 771 mmHg 65%
    17:00 +14°C° 0 mm 3 mps 771 mmHg 71%
    18:00 +13°C° 0 mm 3 mps 772 mmHg 77%
    19:00 +12°C° 0 mm 2 mps 772 mmHg 83%
    20:00 +12°C° 0 mm 2 mps 772 mmHg 84%
    21:00 +12°C° 0 mm 2 mps 773 mmHg 85%
    22:00 +10°C° 0 mm 2 mps 773 mmHg 85%
    23:00 +10°C° 0 mm 2 mps 773 mmHg 86%

    Tomorrow, 23 February, Sunday

    Time Temperature Precipitation Wind Pressure Humidity
    00:00 +10°C° 0 mm 2 mps 773 mmHg 87%
    01:00 +9°C° 0 mm 2 mps 773 mmHg 88%
    02:00 +9°C° 0 mm 2 mps 773 mmHg 88%
    03:00 +9°C° 0 mm 2 mps 772 mmHg 88%
    04:00 +9°C° 0 mm 2 mps 772 mmHg 88%
    05:00 +9°C° 0 mm 2 mps 772 mmHg 87%
    06:00 +8°C° 0 mm 2 mps 772 mmHg 87%
    07:00 +9°C° 0 mm 1 mps 773 mmHg 86%
    08:00 +11°C° 0 mm 1 mps 773 mmHg 79%
    09:00 +13°C° 0 mm 2 mps 773 mmHg 72%
    10:00 +15°C° 0 mm 2 mps 773 mmHg 64%
    11:00 +16°C° 0 mm 2 mps 773 mmHg 59%
    12:00 +18°C° 0 mm 3 mps 772 mmHg 53%
    13:00 +19°C° 0 mm 3 mps 772 mmHg 47%
    14:00 +18°C° 0 mm 3 mps 771 mmHg 51%
    15:00 +18°C° 0 mm 3 mps 771 mmHg 54%
    16:00 +17°C° 0 mm 3 mps 770 mmHg 58%
    17:00 +16°C° 0 mm 2 mps 771 mmHg 66%
    18:00 +14°C° 0 mm 2 mps 771 mmHg 74%
    19:00 +12°C° 0 mm 1 mps 771 mmHg 82%
    20:00 +12°C° 0 mm 1 mps 771 mmHg 83%
    21:00 +10°C° 0 mm 2 mps 771 mmHg 83%
    22:00 +10°C° 0 mm 2 mps 771 mmHg 84%
    23:00 +10°C° 0 mm 2 mps 771 mmHg 83%

    Day after tomorrow, 24 February, Monday

    Time Temperature Precipitation Wind Pressure Humidity
    00:00 +10°C° 0 mm 2 mps 771 mmHg 82%
    01:00 +10°C° 0 mm 2 mps 771 mmHg 81%
    02:00 +9°C° 0 mm 2 mps 770 mmHg 80%
    03:00 +9°C° 0 mm 2 mps 770 mmHg 79%
    04:00 +9°C° 0 mm 2 mps 769 mmHg 77%
    05:00 +9°C° 0 mm 2 mps 769 mmHg 75%
    06:00 +9°C° 0 mm 2 mps 769 mmHg 74%
    07:00 +9°C° 0 mm 2 mps 769 mmHg 72%
    08:00 +12°C° 0 mm 2 mps 769 mmHg 64%
    09:00 +15°C° 0 mm 2 mps 769 mmHg 57%
    10:00 +17°C° 0 mm 2 mps 769 mmHg 49%
    11:00 +18°C° 0 mm 2 mps 768 mmHg 45%
    12:00 +19°C° 0 mm 2 mps 768 mmHg 42%
    13:00 +21°C° 0 mm 2 mps 767 mmHg 38%
    14:00 +20°C° 0 mm 2 mps 767 mmHg 40%
    15:00 +20°C° 0 mm 2 mps 766 mmHg 42%
    16:00 +20°C° 0 mm 2 mps 766 mmHg 44%
    17:00 +18°C° 0 mm 2 mps 766 mmHg 51%
    18:00 +15°C° 0 mm 1 mps 766 mmHg 59%
    19:00 +12°C° 0 mm 0 mps 766 mmHg 66%
    20:00 +13°C° 0 mm 1 mps 766 mmHg 65%
    21:00 +13°C° 0 mm 1 mps 766 mmHg 64%
    22:00 +13°C° 0 mm 1 mps 766 mmHg 63%
    23:00 +13°C° 0 mm 1 mps 765 mmHg 61%

    25 February, Tuesday

    Time Temperature Precipitation Wind Pressure Humidity
    00:00 +13°C° 0 mm 1 mps 765 mmHg 60%
    01:00 +13°C° 0 mm 1 mps 765 mmHg 58%
    02:00 +13°C° 0 mm 1 mps 764 mmHg 56%
    03:00 +13°C° 0 mm 2 mps 764 mmHg 54%
    04:00 +13°C° 0 mm 2 mps 763 mmHg 51%
    05:00 +13°C° 0 mm 2 mps 763 mmHg 52%
    06:00 +13°C° 0 mm 2 mps 763 mmHg 52%
    07:00 +13°C° 0 mm 2 mps 763 mmHg 52%
    08:00 +15°C° 0 mm 2 mps 763 mmHg 50%
    09:00 +18°C° 0 mm 2 mps 763 mmHg 47%
    10:00 +20°C° 0 mm 2 mps 763 mmHg 45%
    11:00 +21°C° 0 mm 2 mps 762 mmHg 43%
    12:00 +23°C° 0 mm 2 mps 762 mmHg 40%
    13:00 +24°C° 0 mm 3 mps 761 mmHg 38%
    14:00 +22°C° 0 mm 3 mps 761 mmHg 42%
    15:00 +21°C° 0 mm 3 mps 760 mmHg 46%
    16:00 +20°C° 0 mm 4 mps 760 mmHg 50%
    17:00 +18°C° 0 mm 4 mps 760 mmHg 59%
    18:00 +16°C° 0 mm 3 mps 760 mmHg 68%
    19:00 +13°C° 0 mm 3 mps 760 mmHg 77%
    20:00 +13°C° 0 mm 3 mps 760 mmHg 76%
    21:00 +13°C° 0 mm 3 mps 761 mmHg 75%
    22:00 +13°C° 0 mm 3 mps 761 mmHg 74%
    23:00 +13°C° 0 mm 3 mps 761 mmHg 73%

    26 February, Wednesday

    Time Temperature Precipitation Wind Pressure Humidity
    00:00 +13°C° 0 mm 4 mps 761 mmHg 71%
    01:00 +12°C° 0 mm 4 mps 761 mmHg 69%
    02:00 +12°C° 0 mm 4 mps 760 mmHg 72%
    03:00 +12°C° 0 mm 5 mps 760 mmHg 74%
    04:00 +12°C° 0 mm 5 mps 760 mmHg 77%
    05:00 +12°C° 0 mm 4 mps 760 mmHg 79%
    06:00 +12°C° 0 mm 4 mps 760 mmHg 81%
    07:00 +12°C° 0 mm 4 mps 760 mmHg 83%
    08:00 +13°C° 0 mm 4 mps 760 mmHg 79%
    09:00 +15°C° 0 mm 5 mps 760 mmHg 75%
    10:00 +16°C° 0 mm 5 mps 760 mmHg 71%
    11:00 +17°C° 0 mm 6 mps 760 mmHg 66%
    12:00 +18°C° 0 mm 7 mps 760 mmHg 61%
    13:00 +20°C° 0 mm 8 mps 760 mmHg 56%
    14:00 +18°C° 0 mm 9 mps 759 mmHg 58%
    15:00 +18°C° 0 mm 9 mps 759 mmHg 60%
    16:00 +17°C° 0 mm 9 mps 759 mmHg 62%
    17:00 +16°C° 0 mm 9 mps 759 mmHg 65%
    18:00 +13°C° 0 mm 9 mps 759 mmHg 69%
    19:00 +12°C° 0 mm 9 mps 760 mmHg 73%
    20:00 +12°C° 0 mm 8 mps 761 mmHg 73%
    21:00 +11°C° 0 mm 8 mps 761 mmHg 74%
    22:00 +11°C° 0 mm 8 mps 762 mmHg 74%
    23:00 +10°C° 0.1 mm 7 mps 762 mmHg 77%

    27 February, Thursday

    Time Temperature Precipitation Wind Pressure Humidity
    00:00 +10°C° 0.1 mm 6 mps 763 mmHg 80%
    01:00 +10°C° 0.1 mm 5 mps 763 mmHg 82%
    02:00 +10°C° 0.1 mm 6 mps 763 mmHg 81%
    03:00 +10°C° 0.1 mm 6 mps 763 mmHg 80%
    04:00 +10°C° 0.1 mm 6 mps 763 mmHg 79%
    05:00 +10°C° 0.1 mm 6 mps 763 mmHg 78%
    06:00 +10°C° 0.1 mm 6 mps 763 mmHg 78%
    07:00 +10°C° 0.1 mm 6 mps 764 mmHg 77%
    08:00 +10°C° 0.1 mm 6 mps 765 mmHg 75%
    09:00 +11°C° 0.1 mm 7 mps 765 mmHg 73%
    10:00 +11°C° 0.1 mm 7 mps 766 mmHg 70%
    11:00 +12°C° 0 mm 7 mps 766 mmHg 65%
    12:00 +14°C° 0 mm 7 mps 766 mmHg 61%
    13:00 +13°C° 0 mm 8 mps 766 mmHg 56%
    14:00 +14°C° 0 mm 7 mps 766 mmHg 57%
    15:00 +14°C° 0 mm 7 mps 766 mmHg 57%
    16:00 +14°C° 0 mm 7 mps 766 mmHg 58%
    17:00 +13°C° 0 mm 6 mps 766 mmHg 63%
    18:00 +10°C° 0 mm 5 mps 767 mmHg 68%
    19:00 +10°C° 0 mm 4 mps 767 mmHg 74%
    20:00 +10°C° 0 mm 3 mps 768 mmHg 75%
    21:00 +9°C° 0 mm 3 mps 768 mmHg 76%
    22:00 +9°C° 0 mm 2 mps 768 mmHg 76%
    23:00 +9°C° 0 mm 2 mps 768 mmHg 78%
    Show more